Pasco, WA
on Thursday, November 22, 2012

Thursday
Previous Day Next Day
Daily Summary
 ActualAverageRecord
Temperature
Mean Temperature °F 39°F  
Max Temperature 52°F 47°F 66°F (2011)
Min Temperature 33°F 31°F 9°F (2013)
Degree Days
Heating Degree Days 22 26  
Month to date heating degree days 425 490  
Since 1 July heating degree days 869 1008  
Cooling Degree Days 0 0  
Month to date cooling degree days 0 0  
Year to date cooling degree days 788 710  
Moisture
Dew Point 33°F   
Average Humidity 69    
Maximum Humidity 92    
Minimum Humidity 46    
Precipitation
Precipitation 0.00 in in 0.44 in (1992)
Month to date precipitation 0.89  
Year to date precipitation 8.35  
Snow
Snow 0.00 in in in ()
Snow Depth 0.00 in   
Wind
Wind Speed 6 mph   
Max Wind Speed 21 mph   
Max Gust Speed 24 mph   
Visibility 10 miles   
Events     

Key: T is trace of precipitation, MM is missing value
Source: NWS Daily Summary
Time(PST)TemperatureDew PointHumidity Pressure Visibility Wind DirectionWind SpeedGust SpeedPrecipitationEvents Conditions
12:53 AM 43.0°F 33.1°F 68% 30.31 in 10.0 miles WSW 15.0 mph - N/A   Clear
1:53 AM 42.1°F 33.1°F 70% 30.34 in 10.0 miles SW 11.5 mph - N/A   Clear
2:53 AM 41.0°F 33.1°F 73% 30.36 in 10.0 miles SW 3.5 mph - N/A   Clear
3:53 AM 39.0°F 33.1°F 79% 30.37 in 10.0 miles South 5.8 mph - N/A   Clear
4:53 AM 37.9°F 33.1°F 83% 30.39 in 10.0 miles SW 5.8 mph - N/A   Clear
5:53 AM 37.9°F 32.0°F 79% 30.41 in 10.0 miles Calm Calm - N/A   Clear
6:53 AM 36.0°F 30.9°F 82% 30.43 in 10.0 miles East 5.8 mph - N/A   Clear
7:53 AM 35.1°F 30.9°F 85% 30.45 in 10.0 miles ESE 3.5 mph - N/A   Clear
8:53 AM 41.0°F 32.0°F 70% 30.46 in 10.0 miles SE 5.8 mph - N/A   Clear
9:53 AM 46.0°F 34.0°F 63% 30.45 in 10.0 miles ESE 4.6 mph - N/A   Clear
10:53 AM 48.0°F 32.0°F 54% 30.45 in 10.0 miles Calm Calm - N/A   Clear
11:53 AM 50.0°F 30.9°F 48% 30.43 in 10.0 miles Calm Calm - N/A   Clear
12:53 PM 50.0°F 32.0°F 50% 30.42 in 10.0 miles East 4.6 mph - N/A   Clear
1:53 PM 51.1°F 33.1°F 50% 30.42 in 10.0 miles NNE 5.8 mph - N/A   Clear
2:53 PM 48.9°F 35.1°F 59% 30.41 in 10.0 miles North 5.8 mph - N/A   Clear
3:53 PM 44.1°F 37.0°F 76% 30.43 in 10.0 miles NW 5.8 mph - N/A   Clear
4:53 PM 39.9°F 35.1°F 83% 30.42 in 10.0 miles NW 6.9 mph - N/A   Clear
5:53 PM 37.0°F 35.1°F 93% 30.41 in 10.0 miles Calm Calm - N/A   Scattered Clouds
6:53 PM 37.0°F 33.1°F 86% 30.41 in 10.0 miles WNW 5.8 mph - N/A   Partly Cloudy
7:53 PM 39.0°F 33.1°F 79% 30.40 in 10.0 miles Calm Calm - N/A   Partly Cloudy
8:53 PM 37.9°F 33.1°F 83% 30.39 in 10.0 miles Calm Calm - N/A   Clear
9:53 PM 37.9°F 33.1°F 83% 30.38 in 10.0 miles Calm Calm - N/A   Clear
10:53 PM 37.9°F 34.0°F 86% 30.38 in 10.0 miles Calm Calm - N/A   Clear
11:53 PM 37.0°F 34.0°F 89% 30.38 in 10.0 miles Calm Calm - N/A   Clear
Moon Phase
Nov. 22 Nov. 28 Dec. 06 Dec. 13 Dec. 20
Sunrise:07:08 AM (PST) Moon Rise:01:20 PM (PST)11/22
Sunset:04:17 PM (PST) Moon Set:01:15 AM (PST)11/22

Copyright © 2014 The Weather Underground, Inc.